マクノート-ヒューズ彗星

130P/McNaught-Hughes (2011)

English version
Home page
Updated on February 10, 2013

---------------------------------------------------------------------

・ プロフィール

・ 写真集

・ 軌道要素

Epoch 2011 June 8.0 TT = JDT 2455720.5
T 2011 June 24.77640 TT                                 MPC
q   2.0980626            (2000.0)            P               Q
n   0.14821844     Peri.  224.36557     +0.69123171     +0.71135160
a   3.5361816      Node    89.81411     -0.62258549     +0.67558974
e   0.4066870      Incl.    7.30735     -0.36685969     +0.19379731
P   6.65
From 665 observations 1991 Sept. 14-2012 Jan. 15, mean residual 0".6.

・ 星図

・ 光度変化

        m1 = 9.5 + 5 logΔ + 17.5 log r

---------------------------------------------------------------------

軌道要素はM.P.E.C. 2012-B23に掲載されたものです。
星図はステラナビゲータ Ver.8 (アストロアーツ) で作成したものです。
光度グラフはComet for Windowsで作成したものです。

---------------------------------------------------------------------

Copyright(C) Seiichi Yoshida (comet@aerith.net). All rights reserved.